Weather History for CYXU - September, 2012

Change the Weather History Date:

Friday, September 7, 2012

  Actual Average Record
Temperature  
Mean Temperature 68 °F -  
Max Temperature 78 °F 73 °F 87 °F (2002)
Min Temperature 57 °F 54 °F 46 °F (2006)
Cooling Degree Days 2    
Growing Degree Days 18 (Base 50)    
Moisture  
Dew Point 61 °F    
Average Humidity 78    
Maximum Humidity 94    
Minimum Humidity 50    
Precipitation  
Precipitation 0.00 in - - ()
Sea Level Pressure  
Sea Level Pressure 29.84 in    
Wind  
Wind Speed 4 mph ()    
Max Wind Speed 18 mph    
Max Gust Speed 29 mph    
Visibility 9.8 miles    
Events Rain , Thunderstorm    
Averages and records for this station are not official NWS values.
T = Trace of Precipitation, MM = Missing Value Source: Averaged Metar Reports

Daily Weather History Graph

Daily Weather History Graph

Search for Another Location

Airport or City:

Trip Planner

Search our weather history database for the weather conditions in past years. The results will help you decide how hot, cold, wet, or windy it might be!

Date:

Astronomy

Sep. 07, 2012 Rise Set
Actual Time 6:56 AM EDT 7:48 PM EDT
Civil Twilight 6:27 AM EDT 8:16 PM EDT
Nautical Twilight 5:52 AM EDT 8:51 PM EDT
Astronomical Twilight 5:17 AM EDT 9:26 PM EDT
Moon 11:31 PM EDT (9/7) 1:58 PM EDT (9/7)
Length of Visible Light 13h 49m
Length of Day
12h 51m
Waning Gibbous, 58% of the Moon is Illuminated
Sep 7
Waning Gibbous
Sep 8
Last Quarter
Sep 15
New
Sep 22
First Quarter
Sep 29
Full

Hourly Weather History & Observations

Time (EDT) Temp. Dew Point Humidity Pressure Visibility Wind Dir Wind Speed Gust Speed Precip Events Conditions
12:00 AM 60.8 °F 55.4 °F 82% 29.91 in 15.0 mi Calm Calm - N/A   Clear
1:00 AM 59.0 °F 57.2 °F 94% 29.92 in 15.0 mi NNE 3.5 mph - N/A   Partly Cloudy
2:00 AM 58 °F 56 °F 89% 29.91 in - Calm Calm - -  
2:00 AM 57.2 °F 55.4 °F 94% 29.91 in 15.0 mi Calm Calm - N/A   Clear
3:00 AM 59.0 °F 55.4 °F 88% 29.90 in 15.0 mi Calm Calm - N/A   Clear
4:00 AM 59.0 °F 55.4 °F 88% 29.90 in 15.0 mi Calm Calm - N/A   Clear
5:00 AM 57.2 °F 55.4 °F 94% 29.88 in 15.0 mi ESE 3.5 mph - N/A   Scattered Clouds
6:00 AM 60.8 °F 55.4 °F 82% 29.90 in 15.0 mi Calm Calm - N/A   Mostly Cloudy
7:00 AM 59.0 °F 57.2 °F 94% 29.90 in 4.0 mi NNE 3.5 mph - N/A   Mostly Cloudy
8:00 AM 62 °F 60 °F 90% 29.91 in 3 mi Calm Calm - -  
8:00 AM 62.6 °F 60.8 °F 94% 29.91 in 3.0 mi Calm Calm - N/A   Scattered Clouds
8:24 AM 62.6 °F 60.8 °F 94% 29.89 in 2.5 mi East 5.8 mph - N/A   Scattered Clouds
8:39 AM 64.4 °F 62.6 °F 94% 29.90 in 3.0 mi ENE 5.8 mph - N/A   Scattered Clouds
9:00 AM 66.2 °F 62.6 °F 88% 29.90 in 6.0 mi East 6.9 mph - N/A   Overcast
9:09 AM 68.0 °F 62.6 °F 83% 29.90 in 4.0 mi East 5.8 mph - N/A   Overcast
9:26 AM 68.0 °F 64.4 °F 88% 29.89 in 6.0 mi East 6.9 mph - N/A   Haze
10:00 AM 71.6 °F 66.2 °F 83% 29.90 in 8.0 mi SSE 5.8 mph - N/A   Overcast
10:37 AM 73.4 °F 66.2 °F 78% 29.91 in 4.0 mi SSW 3.5 mph - N/A   Haze
11:00 AM 75.2 °F 68.0 °F 78% 29.91 in 6.0 mi WSW 4.6 mph - N/A   Haze
12:00 PM 78.8 °F 68.0 °F 69% 29.87 in 8.0 mi SSW 12.7 mph - N/A   Overcast
1:00 PM 77.0 °F 64.4 °F 65% 29.86 in 10.0 mi SW 11.5 mph - N/A   Overcast
2:00 PM 77 °F 62 °F 51% 29.86 in 10 mi Calm Calm - -   Overcast
2:00 PM 77.0 °F 62.6 °F 61% 29.86 in 10.0 mi SW 11.5 mph - N/A   Overcast
3:00 PM 78.8 °F 59.0 °F 51% 29.85 in 15.0 mi WSW 11.5 mph 17.3 mph N/A   Mostly Cloudy
4:00 PM 77.0 °F 57.2 °F 50% 29.82 in 15.0 mi WSW 8.1 mph - N/A   Mostly Cloudy
5:00 PM 77.0 °F 57.2 °F 50% 29.81 in 15.0 mi SW 9.2 mph - N/A   Mostly Cloudy
6:00 PM 77.0 °F 57.2 °F 50% 29.79 in 15.0 mi SSW 12.7 mph - N/A   Mostly Cloudy
7:00 PM 75.2 °F 57.2 °F 53% 29.76 in 15.0 mi South 11.5 mph - N/A   Mostly Cloudy
8:00 PM 72 °F 61 °F 59% 29.75 in - South 8.1 mph - -   Overcast
8:00 PM 73.4 °F 60.8 °F 65% 29.75 in 15.0 mi South 9.2 mph - N/A   Overcast
9:00 PM 69.8 °F 64.4 °F 83% 29.72 in 15.0 mi SSE 8.1 mph - N/A   Mostly Cloudy
10:00 PM 69.8 °F 64.4 °F 83% 29.69 in 15.0 mi SSE 8.1 mph - N/A   Overcast
10:33 PM 69.8 °F 64.4 °F 83% 29.69 in 15.0 mi SSE 6.9 mph - N/A Rain Light Rain Showers
11:00 PM 69.8 °F 64.4 °F 83% 29.69 in 15.0 mi South 6.9 mph - N/A   Overcast
11:12 PM 69.8 °F 64.4 °F 83% 29.70 in 5.0 mi Calm Calm - N/A Rain , Thunderstorm Light Thunderstorms and Rain
11:16 PM 69.8 °F 64.4 °F 83% 29.71 in 1.0 mi SSW 6.9 mph - N/A Rain , Thunderstorm Thunderstorms and Rain
11:24 PM 68.0 °F 64.4 °F 88% 29.70 in 2.0 mi SSW 18.4 mph 28.8 mph N/A Rain , Thunderstorm Light Thunderstorms and Rain
11:36 PM 68.0 °F 64.4 °F 88% 29.70 in 2.5 mi SW 12.7 mph 20.7 mph N/A Rain , Thunderstorm Light Thunderstorms and Rain